Location: Clyde
(45.1830°S, 169.3170°E)
Time: 06:49:04
(UTC+12:00)

SL-16 R/B - Pass Details

Date: 14 May 2021
Orbit: 842 x 847 km, 71.0° (Epoch: 19 June)

Event Time Altitude Azimuth Distance (km) Brightness Sun altitude
Rises 18:22:44 0° 32° (NNE) 3,396 5.2 -10.4°
Reaches altitude 10° 18:26:39 10° 59° (ENE) 2,473 4.2 -11.0°
Enters shadow 18:29:02 13° 84° (E) 2,286 3.9 -11.4°
